Year,Month,Day,Hour,Minute,Value (Times are PST for windspeed in km/hr)
2020,12,20,00,00,0.00
2020,12,20,00,01,0.00
2020,12,20,00,02,0.00
2020,12,20,00,03,0.00
2020,12,20,00,04,0.00
2020,12,20,00,05,0.00
2020,12,20,00,06,0.00
2020,12,20,00,07,0.00
2020,12,20,00,08,0.00
2020,12,20,00,09,1.30
2020,12,20,00,10,0.00
2020,12,20,00,11,3.60
2020,12,20,00,12,7.90
2020,12,20,00,13,3.60
2020,12,20,00,14,7.20
2020,12,20,00,15,9.70
2020,12,20,00,16,11.60
2020,12,20,00,17,5.00
2020,12,20,00,18,3.50
2020,12,20,00,19,0.40
2020,12,20,00,20,3.50
2020,12,20,00,21,10.80
2020,12,20,00,22,10.20
2020,12,20,00,23,1.00
2020,12,20,00,24,3.90
2020,12,20,00,25,2.60
2020,12,20,00,26,0.00
2020,12,20,00,27,5.10
2020,12,20,00,28,6.60
2020,12,20,00,29,1.00
2020,12,20,00,30,13.00
2020,12,20,00,31,5.60
2020,12,20,00,32,0.00
2020,12,20,00,33,0.00
2020,12,20,00,34,0.60
2020,12,20,00,35,4.30
2020,12,20,00,36,0.00
2020,12,20,00,37,7.50
2020,12,20,00,38,7.20
2020,12,20,00,39,9.30
2020,12,20,00,40,0.30
2020,12,20,00,41,5.30
2020,12,20,00,42,8.10
2020,12,20,00,43,8.10
2020,12,20,00,44,8.10
2020,12,20,00,45,8.10
2020,12,20,00,46,8.10
2020,12,20,00,47,8.10
2020,12,20,00,48,1.80
2020,12,20,00,49,11.30
2020,12,20,00,50,6.40
2020,12,20,00,51,8.20
2020,12,20,00,52,2.30
2020,12,20,00,53,7.60
2020,12,20,00,54,10.00
2020,12,20,00,55,3.40
2020,12,20,00,56,4.00
2020,12,20,00,57,6.40
2020,12,20,00,58,10.20
2020,12,20,00,59,8.00
2020,12,20,01,00,6.40
2020,12,20,01,01,7.60
2020,12,20,01,02,0.60
2020,12,20,01,03,11.20
2020,12,20,01,04,1.80
2020,12,20,01,05,8.50
2020,12,20,01,06,3.10
2020,12,20,01,07,2.30
2020,12,20,01,08,4.30
2020,12,20,01,09,6.50
2020,12,20,01,10,3.10
2020,12,20,01,11,1.00
2020,12,20,01,12,0.00
2020,12,20,01,13,0.00
2020,12,20,01,14,0.00
2020,12,20,01,15,0.00
2020,12,20,01,16,2.70
2020,12,20,01,17,1.40
2020,12,20,01,18,0.00
2020,12,20,01,19,0.00
2020,12,20,01,20,0.00
2020,12,20,01,21,0.00
2020,12,20,01,22,0.00
2020,12,20,01,23,0.30
2020,12,20,01,24,0.00
2020,12,20,01,25,0.00
2020,12,20,01,26,0.00
2020,12,20,01,27,0.00
2020,12,20,01,28,0.00
2020,12,20,01,29,0.00
2020,12,20,01,30,0.00
2020,12,20,01,31,0.00
2020,12,20,01,32,0.00
2020,12,20,01,33,0.00
2020,12,20,01,34,0.00
2020,12,20,01,35,0.00
2020,12,20,01,36,0.00
2020,12,20,01,37,0.00
2020,12,20,01,38,0.00
2020,12,20,01,39,0.00
2020,12,20,01,40,0.00
2020,12,20,01,41,0.00
2020,12,20,01,42,0.00
2020,12,20,01,43,0.00
2020,12,20,01,44,0.00
2020,12,20,01,45,0.00
2020,12,20,01,46,0.00
2020,12,20,01,47,0.00
2020,12,20,01,48,0.00
2020,12,20,01,49,0.00
2020,12,20,01,50,0.00
2020,12,20,01,51,0.00
2020,12,20,01,52,0.00
2020,12,20,01,53,0.00
2020,12,20,01,54,0.00
2020,12,20,01,55,0.00
2020,12,20,01,56,0.00
2020,12,20,01,57,0.00
2020,12,20,01,58,0.00
2020,12,20,01,59,0.00
2020,12,20,02,00,0.00
2020,12,20,02,01,0.00
2020,12,20,02,02,0.00
2020,12,20,02,03,0.00
2020,12,20,02,04,1.80
2020,12,20,02,05,4.70
2020,12,20,02,06,0.40
2020,12,20,02,07,3.10
2020,12,20,02,08,2.30
2020,12,20,02,09,11.40
2020,12,20,02,10,7.80
2020,12,20,02,11,7.10
2020,12,20,02,12,11.10
2020,12,20,02,13,10.70
2020,12,20,02,14,9.10
2020,12,20,02,15,12.80
2020,12,20,02,16,15.60
2020,12,20,02,17,13.50
2020,12,20,02,18,14.60
2020,12,20,02,19,15.50
2020,12,20,02,20,8.00
2020,12,20,02,21,9.20
2020,12,20,02,22,12.10
2020,12,20,02,23,9.70
2020,12,20,02,24,5.10
2020,12,20,02,25,5.50
2020,12,20,02,26,6.00
2020,12,20,02,27,5.10
2020,12,20,02,28,3.90
2020,12,20,02,29,0.00
2020,12,20,02,30,2.30
2020,12,20,02,31,6.00
2020,12,20,02,32,2.50
2020,12,20,02,33,2.80
2020,12,20,02,34,0.00
2020,12,20,02,35,0.00
2020,12,20,02,36,1.00
2020,12,20,02,37,6.00
2020,12,20,02,38,0.60
2020,12,20,02,39,3.00
2020,12,20,02,40,10.20
2020,12,20,02,41,8.60
2020,12,20,02,42,4.50
2020,12,20,02,43,8.50
2020,12,20,02,44,7.60
2020,12,20,02,45,7.40
2020,12,20,02,46,4.80
2020,12,20,02,47,3.10
2020,12,20,02,48,2.70
2020,12,20,02,49,8.80
2020,12,20,02,50,8.50
2020,12,20,02,51,3.70
2020,12,20,02,52,3.40
2020,12,20,02,53,6.10
2020,12,20,02,54,7.90
2020,12,20,02,55,6.20
2020,12,20,02,56,3.30
2020,12,20,02,57,6.00
2020,12,20,02,58,5.80
2020,12,20,02,59,7.10
2020,12,20,03,00,3.80
2020,12,20,03,01,6.00
2020,12,20,03,02,13.40
2020,12,20,03,03,7.90
2020,12,20,03,04,1.90
2020,12,20,03,05,3.00
2020,12,20,03,06,5.70
2020,12,20,03,07,0.00
2020,12,20,03,08,8.80
2020,12,20,03,09,7.60
2020,12,20,03,10,8.40
2020,12,20,03,11,4.10
2020,12,20,03,12,6.40
2020,12,20,03,13,6.40
2020,12,20,03,14,6.70
2020,12,20,03,15,6.80
2020,12,20,03,16,8.10
2020,12,20,03,17,5.20
2020,12,20,03,18,2.30
2020,12,20,03,19,5.60
2020,12,20,03,20,1.90
2020,12,20,03,21,8.60
2020,12,20,03,22,15.20
2020,12,20,03,23,10.60
2020,12,20,03,24,11.70
2020,12,20,03,25,13.10
2020,12,20,03,26,18.60
2020,12,20,03,27,16.30
2020,12,20,03,28,9.70
2020,12,20,03,29,13.40
2020,12,20,03,30,18.30
2020,12,20,03,31,19.40
2020,12,20,03,32,18.30
2020,12,20,03,33,15.40
2020,12,20,03,34,16.30
2020,12,20,03,35,12.20
2020,12,20,03,36,11.10
2020,12,20,03,37,8.50
2020,12,20,03,38,15.70
2020,12,20,03,39,9.10
2020,12,20,03,40,7.60
2020,12,20,03,41,6.80
2020,12,20,03,42,12.80
2020,12,20,03,43,16.90
2020,12,20,03,44,9.10
2020,12,20,03,45,7.40
2020,12,20,03,46,7.00
2020,12,20,03,47,0.00
2020,12,20,03,48,0.00
2020,12,20,03,49,1.10
2020,12,20,03,50,9.70
2020,12,20,03,51,9.40
2020,12,20,03,52,8.70
2020,12,20,03,53,8.30
2020,12,20,03,54,11.20
2020,12,20,03,55,13.30
2020,12,20,03,56,13.00
2020,12,20,03,57,10.40
2020,12,20,03,58,13.50
2020,12,20,03,59,6.90
2020,12,20,04,00,6.20
2020,12,20,04,01,6.50
2020,12,20,04,02,6.90
2020,12,20,04,03,0.10
2020,12,20,04,04,0.00
2020,12,20,04,05,0.90
2020,12,20,04,06,0.00
2020,12,20,04,07,0.00
2020,12,20,04,08,0.00
2020,12,20,04,09,0.00
2020,12,20,04,10,0.00
2020,12,20,04,11,0.00
2020,12,20,04,12,0.00
2020,12,20,04,13,0.00
2020,12,20,04,14,0.00
2020,12,20,04,15,0.00
2020,12,20,04,16,0.00
2020,12,20,04,17,0.00
2020,12,20,04,18,0.00
2020,12,20,04,19,0.00
2020,12,20,04,20,6.60
2020,12,20,04,21,2.70
2020,12,20,04,22,6.00
2020,12,20,04,23,1.00
2020,12,20,04,24,0.00
2020,12,20,04,25,0.00
2020,12,20,04,26,0.00
2020,12,20,04,27,0.00
2020,12,20,04,28,7.70
2020,12,20,04,29,4.90
2020,12,20,04,30,0.20
2020,12,20,04,31,0.00
2020,12,20,04,32,0.00
2020,12,20,04,33,0.00
2020,12,20,04,34,0.00
2020,12,20,04,35,0.00
2020,12,20,04,36,0.00
2020,12,20,04,37,0.00
2020,12,20,04,38,0.00
2020,12,20,04,39,0.00
2020,12,20,04,40,0.00
2020,12,20,04,41,0.00
2020,12,20,04,42,0.00
2020,12,20,04,43,0.00
2020,12,20,04,44,0.00
2020,12,20,04,45,0.00
2020,12,20,04,46,0.00
2020,12,20,04,47,0.00
2020,12,20,04,48,0.00
2020,12,20,04,49,0.00
2020,12,20,04,50,0.00
2020,12,20,04,51,0.00
2020,12,20,04,52,0.00
2020,12,20,04,53,0.00
2020,12,20,04,54,0.00
2020,12,20,04,55,0.00
2020,12,20,04,56,0.00
2020,12,20,04,57,0.00
2020,12,20,04,58,0.00
2020,12,20,04,59,0.00
2020,12,20,05,00,0.00
2020,12,20,05,01,0.00
2020,12,20,05,02,0.00
2020,12,20,05,03,0.00
2020,12,20,05,04,0.00
2020,12,20,05,05,0.00
2020,12,20,05,06,0.00
2020,12,20,05,07,0.00
2020,12,20,05,08,0.00
2020,12,20,05,09,0.00
2020,12,20,05,10,0.00
2020,12,20,05,11,0.00
2020,12,20,05,12,0.00
2020,12,20,05,13,1.90
2020,12,20,05,14,5.00
2020,12,20,05,15,3.30
2020,12,20,05,16,0.00
2020,12,20,05,17,0.00
2020,12,20,05,18,0.00
2020,12,20,05,19,0.00
2020,12,20,05,20,0.00
2020,12,20,05,21,0.00
2020,12,20,05,22,0.00
2020,12,20,05,23,0.00
2020,12,20,05,24,0.00
2020,12,20,05,25,0.00
2020,12,20,05,26,0.00
2020,12,20,05,27,0.00
2020,12,20,05,28,0.00
2020,12,20,05,29,0.00
2020,12,20,05,30,0.00
2020,12,20,05,31,0.00
2020,12,20,05,32,0.00
2020,12,20,05,33,0.00
2020,12,20,05,34,0.00
2020,12,20,05,35,0.00
2020,12,20,05,36,0.00
2020,12,20,05,37,0.00
2020,12,20,05,38,0.00
2020,12,20,05,39,2.70
2020,12,20,05,40,7.20
2020,12,20,05,41,6.00
2020,12,20,05,42,7.00
2020,12,20,05,43,1.80
2020,12,20,05,44,0.00
2020,12,20,05,45,0.00
2020,12,20,05,46,0.00
2020,12,20,05,47,0.00
2020,12,20,05,48,0.00
2020,12,20,05,49,0.00
2020,12,20,05,50,0.00
2020,12,20,05,51,0.00
2020,12,20,05,52,0.00
2020,12,20,05,53,0.00
2020,12,20,05,54,0.00
2020,12,20,05,55,0.00
2020,12,20,05,56,0.00
2020,12,20,05,57,0.00
2020,12,20,05,58,0.00
2020,12,20,05,59,0.00
2020,12,20,06,00,0.00
2020,12,20,06,01,0.00
2020,12,20,06,02,0.00
2020,12,20,06,03,0.00
2020,12,20,06,04,0.00
2020,12,20,06,05,0.00
2020,12,20,06,06,0.00
2020,12,20,06,07,0.00
2020,12,20,06,08,0.00
2020,12,20,06,09,0.00
2020,12,20,06,10,0.00
2020,12,20,06,11,0.00
2020,12,20,06,12,0.00
2020,12,20,06,13,0.00
2020,12,20,06,14,0.00
2020,12,20,06,15,0.00
2020,12,20,06,16,0.00
2020,12,20,06,17,0.00
2020,12,20,06,18,0.00
2020,12,20,06,19,0.00
2020,12,20,06,20,0.00
2020,12,20,06,21,0.00
2020,12,20,06,22,0.00
2020,12,20,06,23,0.00
2020,12,20,06,24,0.00
2020,12,20,06,25,0.00
2020,12,20,06,26,0.00
2020,12,20,06,27,0.00
2020,12,20,06,28,0.00
2020,12,20,06,29,0.00
2020,12,20,06,30,0.00
2020,12,20,06,31,0.00
2020,12,20,06,32,0.00
2020,12,20,06,33,0.00
2020,12,20,06,34,0.00
2020,12,20,06,35,0.00
2020,12,20,06,36,0.00
2020,12,20,06,37,0.00
2020,12,20,06,38,0.00
2020,12,20,06,39,0.00
2020,12,20,06,40,0.00
2020,12,20,06,41,0.00
2020,12,20,06,42,0.00
2020,12,20,06,43,0.00
2020,12,20,06,44,0.00
2020,12,20,06,45,0.00
2020,12,20,06,46,0.00
2020,12,20,06,47,0.00
2020,12,20,06,48,0.00
2020,12,20,06,49,0.00
2020,12,20,06,50,0.00
2020,12,20,06,51,0.00
2020,12,20,06,52,0.00
2020,12,20,06,53,0.00
2020,12,20,06,54,0.00
2020,12,20,06,55,0.00
2020,12,20,06,56,0.00
2020,12,20,06,57,0.00
2020,12,20,06,58,0.00
2020,12,20,06,59,0.00
2020,12,20,07,00,0.00
2020,12,20,07,01,0.00
2020,12,20,07,02,0.00
2020,12,20,07,03,0.00
2020,12,20,07,04,0.00
2020,12,20,07,05,0.00
2020,12,20,07,06,0.00
2020,12,20,07,07,0.00
2020,12,20,07,08,0.00
2020,12,20,07,09,0.00
2020,12,20,07,10,0.00
2020,12,20,07,11,0.00
2020,12,20,07,12,0.00
2020,12,20,07,13,0.00
2020,12,20,07,14,0.00
2020,12,20,07,15,0.00
2020,12,20,07,16,0.00
2020,12,20,07,17,0.00
2020,12,20,07,18,0.00
2020,12,20,07,19,0.00
2020,12,20,07,20,0.00
2020,12,20,07,21,0.00
2020,12,20,07,22,0.00
2020,12,20,07,23,0.00
2020,12,20,07,24,0.00
2020,12,20,07,25,0.00
2020,12,20,07,26,0.00
2020,12,20,07,27,0.00
2020,12,20,07,28,0.00
2020,12,20,07,29,0.00
2020,12,20,07,30,0.00
2020,12,20,07,31,0.00
2020,12,20,07,32,0.00
2020,12,20,07,33,0.00
2020,12,20,07,34,0.00
2020,12,20,07,35,0.00
2020,12,20,07,36,5.70
2020,12,20,07,37,4.40
2020,12,20,07,38,5.20
2020,12,20,07,39,4.90
2020,12,20,07,40,2.50
2020,12,20,07,41,0.00
2020,12,20,07,42,0.00
2020,12,20,07,43,0.00
2020,12,20,07,44,0.00
2020,12,20,07,45,0.00
2020,12,20,07,46,0.00
2020,12,20,07,47,0.00
2020,12,20,07,48,0.00
2020,12,20,07,49,0.00
2020,12,20,07,50,0.00
2020,12,20,07,51,0.00
2020,12,20,07,52,0.00
2020,12,20,07,53,0.00
2020,12,20,07,54,0.00
2020,12,20,07,55,0.00
2020,12,20,07,56,0.00
2020,12,20,07,57,0.00
2020,12,20,07,58,0.00
2020,12,20,07,59,0.00
2020,12,20,08,00,0.00
2020,12,20,08,01,0.00
2020,12,20,08,02,0.00
2020,12,20,08,03,0.00
2020,12,20,08,04,0.00
2020,12,20,08,05,0.00
2020,12,20,08,06,0.00
2020,12,20,08,07,0.00
2020,12,20,08,08,0.00
2020,12,20,08,09,0.00
2020,12,20,08,10,0.00
2020,12,20,08,11,0.00
2020,12,20,08,12,0.00
2020,12,20,08,13,0.00
2020,12,20,08,14,0.00
2020,12,20,08,15,0.00
2020,12,20,08,16,0.00
2020,12,20,08,17,0.00
2020,12,20,08,18,0.00
2020,12,20,08,19,0.00
2020,12,20,08,20,0.00
2020,12,20,08,21,0.00
2020,12,20,08,22,0.00
2020,12,20,08,23,0.00
2020,12,20,08,24,0.00
2020,12,20,08,25,0.00
2020,12,20,08,26,0.90
2020,12,20,08,27,7.80
2020,12,20,08,28,6.80
2020,12,20,08,29,3.10
2020,12,20,08,30,0.00
2020,12,20,08,31,0.00
2020,12,20,08,32,0.00
2020,12,20,08,33,0.00
2020,12,20,08,34,0.00
2020,12,20,08,35,0.00
2020,12,20,08,36,0.00
2020,12,20,08,37,0.00
2020,12,20,08,38,0.00
2020,12,20,08,39,0.00
2020,12,20,08,40,0.00
2020,12,20,08,41,0.00
2020,12,20,08,42,0.00
2020,12,20,08,43,3.60
2020,12,20,08,44,1.60
2020,12,20,08,45,9.00
2020,12,20,08,46,11.40
2020,12,20,08,47,8.20
2020,12,20,08,48,4.20
2020,12,20,08,49,1.10
2020,12,20,08,50,0.00
2020,12,20,08,51,0.00
2020,12,20,08,52,0.00
2020,12,20,08,53,0.00
2020,12,20,08,54,0.00
2020,12,20,08,55,0.00
2020,12,20,08,56,0.00
2020,12,20,08,57,0.00
2020,12,20,08,58,0.00
2020,12,20,08,59,0.00
2020,12,20,09,00,0.00
2020,12,20,09,01,0.00
2020,12,20,09,02,1.60
2020,12,20,09,03,10.40
2020,12,20,09,04,6.50
2020,12,20,09,05,7.00
2020,12,20,09,06,3.60
2020,12,20,09,07,0.00
2020,12,20,09,08,0.00
2020,12,20,09,09,0.00
2020,12,20,09,10,0.00
2020,12,20,09,11,0.00
2020,12,20,09,12,0.00
2020,12,20,09,13,0.00
2020,12,20,09,14,0.00
2020,12,20,09,15,0.00
2020,12,20,09,16,0.00
2020,12,20,09,17,0.00
2020,12,20,09,18,0.00
2020,12,20,09,19,0.00
2020,12,20,09,20,0.00
2020,12,20,09,21,0.00
2020,12,20,09,22,0.00
2020,12,20,09,23,0.00
2020,12,20,09,24,4.80
2020,12,20,09,25,6.70
2020,12,20,09,26,7.10
2020,12,20,09,27,9.10
2020,12,20,09,28,4.70
2020,12,20,09,29,0.00
2020,12,20,09,30,0.00
2020,12,20,09,31,0.00
2020,12,20,09,32,0.00
2020,12,20,09,33,0.00
2020,12,20,09,34,0.00
2020,12,20,09,35,0.00
2020,12,20,09,36,0.00
2020,12,20,09,37,0.50
2020,12,20,09,38,1.30
2020,12,20,09,39,2.60
2020,12,20,09,40,1.00
2020,12,20,09,41,0.00
2020,12,20,09,42,0.00
2020,12,20,09,43,0.00
2020,12,20,09,44,0.00
2020,12,20,09,45,0.00
2020,12,20,09,46,0.00
2020,12,20,09,47,0.00
2020,12,20,09,48,0.00
2020,12,20,09,49,0.00
2020,12,20,09,50,0.00
2020,12,20,09,51,0.00
2020,12,20,09,52,0.00
2020,12,20,09,53,0.00
2020,12,20,09,54,0.00
2020,12,20,09,55,0.00
2020,12,20,09,56,0.00
2020,12,20,09,57,0.00
2020,12,20,09,58,0.00
2020,12,20,09,59,0.00
2020,12,20,10,00,0.00
2020,12,20,10,01,0.00
2020,12,20,10,02,0.00
2020,12,20,10,03,0.00
2020,12,20,10,04,0.00
2020,12,20,10,05,0.00
2020,12,20,10,06,0.00
2020,12,20,10,07,0.00
2020,12,20,10,08,0.00
2020,12,20,10,09,0.00
2020,12,20,10,10,0.00
2020,12,20,10,11,0.00
2020,12,20,10,12,0.00
2020,12,20,10,13,0.00
2020,12,20,10,14,0.00
2020,12,20,10,15,0.00
2020,12,20,10,16,0.00
2020,12,20,10,17,0.00
2020,12,20,10,18,0.00
2020,12,20,10,19,0.00
2020,12,20,10,20,0.00
2020,12,20,10,21,0.00
2020,12,20,10,22,0.00
2020,12,20,10,23,0.00
2020,12,20,10,24,0.00
2020,12,20,10,25,0.40
2020,12,20,10,26,0.50
2020,12,20,10,27,8.30
2020,12,20,10,28,6.80
2020,12,20,10,29,5.80
2020,12,20,10,30,4.30
2020,12,20,10,31,3.60
2020,12,20,10,32,0.00
2020,12,20,10,33,0.00
2020,12,20,10,34,0.00
2020,12,20,10,35,2.70
2020,12,20,10,36,4.80
2020,12,20,10,37,0.00
2020,12,20,10,38,2.20
2020,12,20,10,39,6.20
2020,12,20,10,40,8.00
2020,12,20,10,41,7.50
2020,12,20,10,42,7.80
2020,12,20,10,43,6.10
2020,12,20,10,44,0.10
2020,12,20,10,45,0.00
2020,12,20,10,46,5.50
2020,12,20,10,47,6.80
2020,12,20,10,48,0.00
2020,12,20,10,49,3.90
2020,12,20,10,50,12.30
2020,12,20,10,51,9.30
2020,12,20,10,52,8.90
2020,12,20,10,53,5.50
2020,12,20,10,54,8.40
2020,12,20,10,55,2.20
2020,12,20,10,56,0.00
2020,12,20,10,57,3.80
2020,12,20,10,58,10.70
2020,12,20,10,59,2.60
2020,12,20,11,00,0.00
2020,12,20,11,01,0.60
2020,12,20,11,02,7.50
2020,12,20,11,03,5.10
2020,12,20,11,04,1.30
2020,12,20,11,05,0.00
2020,12,20,11,06,0.00
2020,12,20,11,07,0.00
2020,12,20,11,08,0.00
2020,12,20,11,09,0.00
2020,12,20,11,10,0.00
2020,12,20,11,11,0.00
2020,12,20,11,12,0.00
2020,12,20,11,13,0.00
2020,12,20,11,14,0.00
2020,12,20,11,15,0.00
2020,12,20,11,16,0.00
2020,12,20,11,17,0.00
2020,12,20,11,18,0.00
2020,12,20,11,19,0.00
2020,12,20,11,20,0.00
2020,12,20,11,21,0.00
2020,12,20,11,22,0.00
2020,12,20,11,23,0.00
2020,12,20,11,24,0.00
2020,12,20,11,25,0.00
2020,12,20,11,26,0.00
2020,12,20,11,27,0.00
2020,12,20,11,28,0.00
2020,12,20,11,29,0.00
2020,12,20,11,30,0.00
2020,12,20,11,31,0.00
2020,12,20,11,32,3.80
2020,12,20,11,33,1.90
2020,12,20,11,34,12.70
2020,12,20,11,35,8.10
2020,12,20,11,36,8.90
2020,12,20,11,37,4.70
2020,12,20,11,38,0.00
2020,12,20,11,39,0.00
2020,12,20,11,40,0.00
2020,12,20,11,41,0.00
2020,12,20,11,42,6.50
2020,12,20,11,43,0.00
2020,12,20,11,44,0.00
2020,12,20,11,45,0.00
2020,12,20,11,46,0.00
2020,12,20,11,47,1.50
2020,12,20,11,48,0.00
2020,12,20,11,49,6.80
2020,12,20,11,50,5.60
2020,12,20,11,51,9.80
2020,12,20,11,52,6.60
2020,12,20,11,53,5.50
2020,12,20,11,54,6.60
2020,12,20,11,55,11.80
2020,12,20,11,56,6.70
2020,12,20,11,57,8.70
2020,12,20,11,58,0.00
2020,12,20,11,59,6.60
2020,12,20,12,00,10.50
2020,12,20,12,01,4.80
2020,12,20,12,02,2.60
2020,12,20,12,03,1.00
2020,12,20,12,04,7.70
2020,12,20,12,05,2.30
2020,12,20,12,06,0.50
2020,12,20,12,07,4.60
2020,12,20,12,08,8.00
2020,12,20,12,09,5.30
2020,12,20,12,10,4.80
2020,12,20,12,11,0.00
2020,12,20,12,12,1.20
2020,12,20,12,13,9.70
2020,12,20,12,14,1.10
2020,12,20,12,15,1.30
2020,12,20,12,16,3.80
2020,12,20,12,17,3.10
2020,12,20,12,18,0.00
2020,12,20,12,19,0.00
2020,12,20,12,20,1.20
2020,12,20,12,21,4.30
2020,12,20,12,22,5.50
2020,12,20,12,23,7.80
2020,12,20,12,24,1.40
2020,12,20,12,25,0.00
2020,12,20,12,26,0.00
2020,12,20,12,27,0.00
2020,12,20,12,28,0.00
2020,12,20,12,29,0.00
2020,12,20,12,30,3.50
2020,12,20,12,31,0.00
2020,12,20,12,32,0.00
2020,12,20,12,33,0.00
2020,12,20,12,34,0.00
2020,12,20,12,35,1.80
2020,12,20,12,36,0.00
2020,12,20,12,37,3.20
2020,12,20,12,38,0.30
2020,12,20,12,39,0.00
2020,12,20,12,40,0.00
2020,12,20,12,41,0.80
2020,12,20,12,42,0.00
2020,12,20,12,43,0.00
2020,12,20,12,44,0.00
2020,12,20,12,45,2.20
2020,12,20,12,46,2.00
2020,12,20,12,47,10.30
2020,12,20,12,48,0.80
2020,12,20,12,49,0.10
2020,12,20,12,50,7.60
2020,12,20,12,51,5.00
2020,12,20,12,52,4.80
2020,12,20,12,53,5.20
2020,12,20,12,54,13.80
2020,12,20,12,55,1.40
2020,12,20,12,56,0.00
2020,12,20,12,57,0.00
2020,12,20,12,58,1.90
2020,12,20,12,59,8.90
2020,12,20,13,00,10.50
2020,12,20,13,01,6.90
2020,12,20,13,02,1.20
2020,12,20,13,03,10.10
2020,12,20,13,04,10.70
2020,12,20,13,05,6.80
2020,12,20,13,06,9.70
2020,12,20,13,07,8.80
2020,12,20,13,08,12.40
2020,12,20,13,09,3.30
2020,12,20,13,10,3.30
2020,12,20,13,11,5.30
2020,12,20,13,12,0.80
2020,12,20,13,13,6.10
2020,12,20,13,14,9.50
2020,12,20,13,15,3.30
2020,12,20,13,16,0.00
2020,12,20,13,17,0.00
2020,12,20,13,18,0.00
2020,12,20,13,19,0.00
2020,12,20,13,20,0.00
2020,12,20,13,21,2.30
2020,12,20,13,22,9.80
2020,12,20,13,23,7.40
2020,12,20,13,24,3.80
2020,12,20,13,25,0.00
2020,12,20,13,26,0.00
2020,12,20,13,27,3.10
2020,12,20,13,28,9.20
2020,12,20,13,29,3.50
2020,12,20,13,30,0.00
2020,12,20,13,31,0.00
2020,12,20,13,32,0.00
2020,12,20,13,33,0.00
2020,12,20,13,34,0.00
2020,12,20,13,35,0.00
2020,12,20,13,36,0.00
2020,12,20,13,37,0.00
2020,12,20,13,38,0.00
2020,12,20,13,39,3.60
2020,12,20,13,40,0.00
2020,12,20,13,41,0.00
2020,12,20,13,42,0.00
2020,12,20,13,43,0.00
2020,12,20,13,44,0.00
2020,12,20,13,45,0.00
2020,12,20,13,46,0.00
2020,12,20,13,47,0.00
2020,12,20,13,48,0.00
2020,12,20,13,49,0.00
2020,12,20,13,50,0.00
2020,12,20,13,51,0.00
2020,12,20,13,52,0.00
2020,12,20,13,53,3.90
2020,12,20,13,54,0.00
2020,12,20,13,55,0.00
2020,12,20,13,56,0.00
2020,12,20,13,57,0.00
2020,12,20,13,58,0.00
2020,12,20,13,59,0.00
2020,12,20,14,00,0.00
2020,12,20,14,01,0.00
2020,12,20,14,02,0.00
2020,12,20,14,03,0.00
2020,12,20,14,04,0.00
2020,12,20,14,05,0.00
2020,12,20,14,06,0.00
2020,12,20,14,07,0.00
2020,12,20,14,08,0.00
2020,12,20,14,09,0.00
2020,12,20,14,10,0.00
2020,12,20,14,11,0.00
2020,12,20,14,12,0.00
2020,12,20,14,13,0.00
2020,12,20,14,14,0.00
2020,12,20,14,15,0.00
2020,12,20,14,16,0.00
2020,12,20,14,17,0.00
2020,12,20,14,18,0.00
2020,12,20,14,19,0.00
2020,12,20,14,20,0.00
2020,12,20,14,21,0.00
2020,12,20,14,22,0.00
2020,12,20,14,23,0.00
2020,12,20,14,24,0.00
2020,12,20,14,25,0.00
2020,12,20,14,26,0.00
2020,12,20,14,27,0.00
2020,12,20,14,28,0.00
2020,12,20,14,29,1.10
2020,12,20,14,30,2.30
2020,12,20,14,31,0.00
2020,12,20,14,32,0.00
2020,12,20,14,33,0.00
2020,12,20,14,34,0.00
2020,12,20,14,35,0.00
2020,12,20,14,36,1.30
2020,12,20,14,37,2.90
2020,12,20,14,38,3.90
2020,12,20,14,39,1.20
2020,12,20,14,40,0.00
2020,12,20,14,41,0.00
2020,12,20,14,42,0.00
2020,12,20,14,43,0.90
2020,12,20,14,44,4.80
2020,12,20,14,45,2.60
2020,12,20,14,46,0.30
2020,12,20,14,47,0.00
2020,12,20,14,48,0.00
2020,12,20,14,49,0.00
2020,12,20,14,50,0.00
2020,12,20,14,51,0.00
2020,12,20,14,52,0.00
2020,12,20,14,53,0.00
2020,12,20,14,54,0.00
2020,12,20,14,55,0.00
2020,12,20,14,56,0.00
2020,12,20,14,57,0.00
2020,12,20,14,58,0.00
2020,12,20,14,59,0.00
2020,12,20,15,00,0.00
2020,12,20,15,01,0.00
2020,12,20,15,02,0.00
2020,12,20,15,03,0.00
2020,12,20,15,04,0.00
2020,12,20,15,05,0.00
2020,12,20,15,06,0.00
2020,12,20,15,07,0.00
2020,12,20,15,08,0.00
2020,12,20,15,09,0.00
2020,12,20,15,10,0.00
2020,12,20,15,11,0.00
2020,12,20,15,12,0.00
2020,12,20,15,13,0.00
2020,12,20,15,14,0.00
2020,12,20,15,15,1.70
2020,12,20,15,16,0.80
2020,12,20,15,17,0.00
2020,12,20,15,18,0.00
2020,12,20,15,19,0.00
2020,12,20,15,20,0.00
2020,12,20,15,21,0.00
2020,12,20,15,22,0.00
2020,12,20,15,23,0.00
2020,12,20,15,24,0.00
2020,12,20,15,25,0.00
2020,12,20,15,26,0.00
2020,12,20,15,27,0.00
2020,12,20,15,28,0.00
2020,12,20,15,29,0.00
2020,12,20,15,30,0.00
2020,12,20,15,31,0.00
2020,12,20,15,32,0.00
2020,12,20,15,33,0.00
2020,12,20,15,34,0.00
2020,12,20,15,35,0.00
2020,12,20,15,36,0.00
2020,12,20,15,37,0.00
2020,12,20,15,38,0.00
2020,12,20,15,39,3.10
2020,12,20,15,40,0.00
2020,12,20,15,41,0.00
2020,12,20,15,42,0.00
2020,12,20,15,43,0.00
2020,12,20,15,44,0.00
2020,12,20,15,45,0.00
2020,12,20,15,46,0.00
2020,12,20,15,47,0.00
2020,12,20,15,48,0.00
2020,12,20,15,49,0.00
2020,12,20,15,50,0.00
2020,12,20,15,51,3.00
2020,12,20,15,52,4.70
2020,12,20,15,53,0.00
2020,12,20,15,54,0.00
2020,12,20,15,55,0.00
2020,12,20,15,56,0.00
2020,12,20,15,57,0.00
2020,12,20,15,58,0.00
2020,12,20,15,59,0.00
2020,12,20,16,00,0.00
2020,12,20,16,01,0.00
2020,12,20,16,02,0.00
2020,12,20,16,03,0.00
2020,12,20,16,04,0.00
2020,12,20,16,05,0.00
2020,12,20,16,06,0.00
2020,12,20,16,07,0.00
2020,12,20,16,08,0.00
2020,12,20,16,09,0.00
2020,12,20,16,10,0.00
2020,12,20,16,11,0.00
2020,12,20,16,12,0.00
2020,12,20,16,13,0.00
2020,12,20,16,14,0.00
2020,12,20,16,15,0.00
2020,12,20,16,16,0.00
2020,12,20,16,17,0.00
2020,12,20,16,18,0.00
2020,12,20,16,19,0.00
2020,12,20,16,20,0.00
2020,12,20,16,21,0.00
2020,12,20,16,22,0.00
2020,12,20,16,23,0.00
2020,12,20,16,24,0.00
2020,12,20,16,25,0.00
2020,12,20,16,26,0.00
2020,12,20,16,27,0.00
2020,12,20,16,28,0.00
2020,12,20,16,29,0.00
2020,12,20,16,30,0.00
2020,12,20,16,31,0.00
2020,12,20,16,32,0.00
2020,12,20,16,33,0.00
2020,12,20,16,34,0.00
2020,12,20,16,35,0.00
2020,12,20,16,36,0.00
2020,12,20,16,37,0.00
2020,12,20,16,38,0.00
2020,12,20,16,39,0.00
2020,12,20,16,40,0.00
2020,12,20,16,41,0.00
2020,12,20,16,42,0.00
2020,12,20,16,43,0.00
2020,12,20,16,44,0.00
2020,12,20,16,45,0.00
2020,12,20,16,46,0.00
2020,12,20,16,47,0.00
2020,12,20,16,48,0.00
2020,12,20,16,49,0.00
2020,12,20,16,50,0.00
2020,12,20,16,51,0.00
2020,12,20,16,52,0.00
2020,12,20,16,53,0.00
2020,12,20,16,54,0.00
2020,12,20,16,55,0.00
2020,12,20,16,56,2.30
2020,12,20,16,57,0.20
2020,12,20,16,58,0.00
2020,12,20,16,59,0.00
2020,12,20,17,00,0.00
2020,12,20,17,01,0.00
2020,12,20,17,02,0.50
2020,12,20,17,03,6.10
2020,12,20,17,04,2.00
2020,12,20,17,05,0.00
2020,12,20,17,06,0.00
2020,12,20,17,07,0.00
2020,12,20,17,08,0.00
2020,12,20,17,09,0.00
2020,12,20,17,10,0.00
2020,12,20,17,11,0.00
2020,12,20,17,12,0.00
2020,12,20,17,13,0.00
2020,12,20,17,14,0.00
2020,12,20,17,15,0.00
2020,12,20,17,16,0.00
2020,12,20,17,17,0.00
2020,12,20,17,18,0.00
2020,12,20,17,19,0.00
2020,12,20,17,20,0.00
2020,12,20,17,21,0.00
2020,12,20,17,22,0.00
2020,12,20,17,23,0.00
2020,12,20,17,24,0.00
2020,12,20,17,25,0.00
2020,12,20,17,26,0.00
2020,12,20,17,27,0.00
2020,12,20,17,28,0.00
2020,12,20,17,29,0.00
2020,12,20,17,30,3.00
2020,12,20,17,31,0.00
2020,12,20,17,32,0.00
2020,12,20,17,33,0.00
2020,12,20,17,34,0.00
2020,12,20,17,35,0.00
2020,12,20,17,36,0.00
2020,12,20,17,37,0.00
2020,12,20,17,38,0.00
2020,12,20,17,39,0.00
2020,12,20,17,40,0.00
2020,12,20,17,41,0.00
2020,12,20,17,42,0.00
2020,12,20,17,43,0.00
2020,12,20,17,44,0.00
2020,12,20,17,45,0.00
2020,12,20,17,46,1.70
2020,12,20,17,47,0.00
2020,12,20,17,48,0.00
2020,12,20,17,49,0.00
2020,12,20,17,50,0.00
2020,12,20,17,51,0.00
2020,12,20,17,52,0.00
2020,12,20,17,53,0.00
2020,12,20,17,54,0.00
2020,12,20,17,55,0.00
2020,12,20,17,56,0.00
2020,12,20,17,57,0.00
2020,12,20,17,58,0.00
2020,12,20,17,59,0.00
2020,12,20,18,00,0.00
2020,12,20,18,01,0.00
2020,12,20,18,02,0.00
2020,12,20,18,03,0.00
2020,12,20,18,04,0.00